Temperature
19 19 19 19 19 19 19 19 19 20 19 19 19 19 19 19 19 19 19 19 19 19 19 19 19 19 19 19 19 19 18 18 18 19 18 18 18 18 18 18 18 18 18
20 19 19 19 19 19 19 20 20 20 19 19 19 19 19 19 19 19 19 19 19 19 19 19 19 19 19 19 19 18 18 18 18 18 18 18 18 18 18 18 18 18 18
20 19 19 19 19 19 20 20 20 20 19 19 19 19 19 19 19 19 19 19 19 19 19 19 19 19 19 18 18 18 18 18 18 18 18 18 18 18 18 18 18 18 18
20 20 19 19 19 19 20 20 20 20 19 19 19 19 19 19 19 19 19 19 19 19 19 19 19 19 18 18 18 18 18 18 18 18 18 18 18 18 18 18 18 18 18
20 20 19 19 19 20 20 20 20 20 19 19 19 19 19 19 19 19 19 19 19 19 19 19 19 19 18 18 18 18 18 18 18 18 18 18 18 18 18 18 18 18 18
20 19 19 19 19 20 20 19 20 20 19 19 19 19 19 19 19 19 19 19 19 19 19 19 19 19 18 18 18 18 18 18 18 18 18 18 18 18 18 18 18 18 18
20 19 19 19 19 19 19 19 19 19 19 19 19 19 19 19 19 19 19 19 19 19 19 18 18 18 18 18 18 18 18 18 18 18 18 18 18 18 18 18 18 18 18
20 19 19 19 19 19 19 19 19 19 19 19 19 19 19 19 19 19 19 19 19 19 19 19 18 18 18 18 18 18 18 18 18 18 18 18 18 18 18 18 18 17 17
20 20 19 19 19 19 19 19 19 19 19 19 19 19 19 19 19 19 19 19 19 19 19 18 18 18 18 18 18 18 18 18 18 18 18 18 18 18 18 18 18 18 17
20 20 20 19 19 19 19 19 19 19 19 19 19 19 19 19 19 19 19 19 19 19 18 18 18 18 18 18 18 18 18 18 18 18 18 18 18 18 18 18 18 18 17
20 20 20 20 19 19 19 19 19 19 19 19 19 19 19 19 19 19 19 19 19 19 18 18 18 18 18 18 18 18 18 18 18 18 18 18 18 18 18 18 18 18 17
20 20 20 20 20 19 19 19 19 19 19 19 19 19 19 19 19 19 19 19 19 18 18 18 18 18 18 18 18 18 18 18 18 18 18 18 18 18 18 18 18 18 18
20 20 20 20 20 20 19 19 19 19 19 19 19 19 19 19 19 19 19 19 19 18 18 18 18 18 18 18 18 18 18 18 18 18 18 18 18 18 18 18 18 18 17
20 20 20 20 20 20 19 19 19 19 19 19 19 19 19 19 19 19 19 19 18 18 18 18 18 18 18 18 18 18 18 18 18 18 18 18 18 18 18 18 18 18 18
20 20 20 20 20 20 19 19 19 19 19 19 19 18 18 18 18 18 19 18 18 18 18 18 18 18 18 18 18 18 18 18 18 18 18 18 18 18 18 18 18 18 18
20 20 20 20 20 20 19 19 19 19 19 19 19 18 18 18 18 18 18 18 18 18 18 18 18 18 18 18 18 18 18 18 18 18 18 18 18 18 18 18 18 18 18
21 20 20 20 20 20 19 19 19 19 19 19 19 18 18 18 18 18 18 18 18 18 18 18 18 18 18 18 18 18 18 18 18 18 18 18 18 18 18 18 18 18 18
21 21 20 20 20 20 20 19 19 19 19 19 19 18 18 18 18 18 18 18 18 18 18 18 18 18 18 18 18 18 18 18 18 18 18 18 18 18 18 18 18 18 18
21 21 21 20 20 20 20 19 19 19 19 19 19 19 18 18 18 18 18 18 18 18 18 18 18 18 18 18 18 18 18 18 18 18 18 18 18 18 18 18 18 18 18
21 21 21 20 20 20 20 19 19 19 19 19 19 19 19 18 18 18 18 18 18 18 18 18 18 18 18 18 18 18 18 18 18 18 18 18 18 18 18 18 18 18 18
21 21 21 21 20 20 20 19 19 19 19 19 19 19 19 18 18 18 18 18 18 18 18 18 18 18 18 18 18 18 18 18 18 18 18 18 18 18 18 18 18 18 18
21 21 21 21 20 20 20 20 19 19 19 19 19 18 18 18 18 18 18 18 18 18 18 18 18 18 17 17 17 17 18 18 18 18 18 18 18 18 18 18 18 18 18
21 21 21 21 21 20 20 20 19 19 19 19 19 18 18 18 18 18 18 18 18 18 18 18 18 17 17 17 17 17 17 17 17 18 18 18 18 18 18 18 17 17 17
22 21 21 21 21 20 20 20 19 19 19 19 19 18 18 18 18 18 18 18 18 18 18 18 18 17 17 17 17 17 17 17 17 17 17 17 17 17 17 17 17 17 17
22 21 21 21 20 20 20 20 19 19 19 19 19 18 18 18 18 18 18 18 18 18 18 17 17 17 17 17 17 17 17 17 17 17 17 17 17 17 17 17 17 17 17
21 21 21 21 20 20 20 20 19 19 19 19 18 18 18 18 18 18 18 18 18 18 18 17 17 17 17 17 17 17 17 17 17 16 16 17 17 17 17 17 17 17 17
Wind_Speed
2 4 8 9 10 11 11 12 13 13 14 15 16 16 17 17 17 16 16 16 15 15 14 13 13 13 12 12 12 11 11 11 11 11 11 11 11 11 11 11 11 10 11
4 6 9 10 11 11 11 12 13 13 14 14 15 16 16 16 16 16 16 15 14 14 13 13 12 12 12 11 11 10 10 10 10 10 10 9 10 10 10 10 10 9 11
4 6 10 11 11 11 11 11 12 13 13 14 14 15 15 15 15 15 15 15 14 13 13 12 12 11 11 10 10 10 9 9 9 9 9 7 8 9 9 9 9 9 10
5 6 9 12 12 12 11 12 12 12 13 13 13 14 14 14 14 14 14 14 13 12 12 12 11 11 10 9 9 9 8 8 8 8 7 6 6 8 8 9 9 9 9
5 6 8 11 11 12 12 11 12 12 12 12 12 12 13 13 13 12 12 12 12 11 11 11 10 9 9 8 8 7 7 7 7 6 6 6 5 7 8 8 9 9 9
5 6 7 11 11 11 11 11 11 11 11 11 11 11 11 12 12 11 11 11 10 10 9 9 8 8 7 7 7 6 6 6 5 5 6 6 6 7 7 8 8 9 9
5 4 7 10 10 10 11 11 11 11 10 9 9 9 9 10 10 10 10 9 9 9 8 7 7 6 6 6 6 6 5 5 4 4 5 5 6 7 7 7 8 9 9
5 4 6 9 10 10 10 10 10 10 9 9 8 8 8 7 8 8 8 8 7 7 6 6 6 5 5 5 5 5 5 5 4 4 4 5 7 7 7 7 8 8 9
4 4 3 5 7 8 8 8 9 8 8 8 7 7 7 6 6 7 7 6 6 6 6 5 4 4 4 4 4 4 5 4 3 3 4 5 7 7 7 7 7 8 9
4 3 3 3 4 5 6 7 7 7 6 6 6 5 5 4 4 4 5 5 5 5 5 5 5 5 4 4 5 5 5 4 3 4 4 6 7 7 7 7 8 8 9
3 2 2 3 3 3 4 5 6 6 5 4 4 3 3 2 1 1 2 3 3 4 4 4 5 5 4 4 5 5 4 3 4 4 5 7 8 8 8 8 8 9 9
3 2 1 2 2 3 3 3 3 3 3 2 2 1 1 1 1 0 1 2 2 3 4 4 4 4 3 2 3 3 2 3 3 4 5 7 8 9 9 9 8 9 9
4 3 2 2 2 2 2 2 2 2 2 2 1 1 1 1 1 1 1 2 2 2 2 2 2 2 2 2 2 2 2 2 3 4 5 8 9 9 9 9 9 9 9
4 4 3 3 2 2 2 1 2 1 1 1 0 1 1 0 1 1 1 2 2 1 2 1 1 2 3 3 3 3 3 2 3 4 6 8 9 9 10 10 10 10 10
5 5 4 3 3 2 2 1 1 1 1 1 1 1 1 1 1 1 1 1 2 1 1 1 1 2 2 2 2 3 3 3 4 4 5 7 8 8 10 10 10 11 11
6 5 5 4 4 3 2 2 1 2 1 1 1 1 1 2 1 0 1 1 2 2 1 1 2 1 2 2 2 2 3 3 4 5 5 6 7 7 8 9 9 10 11
6 5 5 5 4 4 3 2 2 2 2 1 2 2 2 2 2 1 1 1 1 1 1 1 1 1 1 1 2 2 2 3 4 4 4 4 5 6 7 8 9 9 9
6 5 5 5 4 4 3 2 2 2 2 2 2 1 2 3 2 1 1 1 1 1 0 0 1 1 1 1 1 2 1 2 3 4 4 4 4 4 6 8 9 9 9
7 6 5 4 5 4 3 2 2 2 2 2 2 1 2 2 2 1 1 1 1 1 0 1 0 1 1 1 2 1 1 2 2 3 3 3 3 3 4 6 7 8 8
6 5 5 4 4 4 3 2 1 1 0 1 1 2 2 1 1 1 0 1 1 1 1 0 0 0 1 1 1 1 1 2 1 2 2 2 2 3 3 4 4 6 8
6 6 5 5 4 4 3 2 2 1 1 1 1 2 2 1 1 1 0 1 1 0 1 1 0 0 0 0 1 1 2 1 1 1 1 1 1 2 2 3 3 4 5
8 7 6 5 5 4 3 3 2 2 1 1 1 1 1 1 1 1 1 1 0 0 1 1 1 0 0 1 1 1 1 2 2 1 1 1 1 1 2 2 3 4 5
9 8 7 6 5 4 4 3 2 2 1 1 1 1 2 1 1 1 1 1 1 1 1 1 1 1 1 0 1 2 1 1 2 2 1 1 1 2 2 2 3 4 4
9 8 7 6 5 4 4 4 4 3 2 2 1 1 2 1 1 1 2 1 1 1 1 1 1 1 2 1 0 0 1 2 1 2 2 2 2 2 3 2 3 3 4
8 8 7 6 6 5 5 5 4 3 2 1 0 1 1 1 1 1 1 1 1 1 1 1 1 2 2 2 2 1 1 1 1 2 3 3 3 3 3 3 3 3 4
7 7 7 7 6 6 6 5 6 5 4 2 1 1 2 2 1 1 1 1 1 1 2 2 2 2 2 2 2 2 2 1 2 2 3 3 3 3 3 2 2 3 4
Wind_Direction
177 162 147 134 130 125 122 122 120 120 122 125 130 133 136 140 141 140 139 138 138 136 135 133 132 131 130 131 131 132 132 131 131 130 130 131 131 129 127 125 123 122 123
154 155 148 139 135 131 128 126 124 123 124 126 131 134 136 138 141 142 140 140 140 138 136 134 134 132 130 132 135 136 138 139 138 137 134 131 133 135 135 134 133 131 130
134 152 148 142 138 133 129 126 125 123 124 127 131 134 137 137 139 142 143 143 142 140 138 137 137 136 135 134 134 137 141 143 143 142 135 131 138 142 144 144 144 140 139
123 136 142 140 137 133 130 127 125 124 125 127 130 135 138 139 140 143 146 145 144 143 142 141 142 142 140 138 137 139 144 146 146 144 138 141 148 153 153 153 152 150 149
108 123 140 136 135 133 129 126 126 125 126 128 130 136 139 140 143 146 148 148 147 147 148 148 147 147 146 145 145 146 148 155 156 151 146 151 156 161 163 164 162 160 159
107 121 141 137 135 131 127 126 126 126 126 128 131 135 139 142 144 145 146 149 150 152 154 155 156 156 156 155 155 156 159 159 149 148 155 161 169 173 173 174 170 170 170
118 124 144 139 135 132 131 127 125 125 128 129 130 132 136 141 145 145 148 152 156 158 162 166 167 167 166 167 168 169 171 169 152 146 157 169 179 184 186 186 182 179 177
115 112 139 142 139 136 135 133 131 131 132 133 133 132 136 141 147 149 153 156 161 163 169 175 180 183 178 181 180 178 185 184 169 170 175 182 187 190 192 190 187 186 185
100 99 112 140 144 141 139 137 137 136 135 135 134 132 132 139 146 154 160 164 173 180 183 188 196 199 195 197 199 199 197 198 178 190 199 198 196 196 195 192 194 195 194
92 92 98 107 115 132 140 139 138 137 136 136 136 135 134 137 145 160 167 176 186 194 196 198 207 217 217 215 215 214 209 199 192 206 210 210 206 206 207 204 203 201 200
120 98 95 100 104 119 135 147 146 144 143 147 144 139 128 107 109 154 184 194 200 208 216 219 222 229 231 228 223 219 222 206 205 216 219 219 218 214 212 211 208 207 206
166 167 128 118 120 119 140 136 132 137 135 136 142 143 103 82 94 171 252 250 233 233 236 232 228 231 235 236 232 227 218 213 221 228 227 223 222 217 215 214 216 215 213
175 173 162 153 141 135 132 126 125 133 136 136 134 131 101 69 6 326 314 309 295 262 261 247 232 230 234 233 231 229 215 220 226 234 234 234 228 221 219 216 220 222 220
164 184 181 169 156 161 155 146 136 135 143 159 194 151 138 95 357 321 306 308 306 276 269 251 244 231 225 226 220 214 214 222 232 236 235 239 234 226 224 225 225 224 222
178 190 190 176 171 170 158 166 147 145 171 205 255 241 193 177 232 293 315 311 303 295 270 253 253 245 226 218 216 211 218 232 242 243 242 242 241 236 231 231 226 227 226
186 189 188 179 182 168 163 163 156 166 193 207 236 252 229 210 224 272 318 315 310 296 260 253 260 251 248 230 232 223 225 233 240 242 244 240 241 241 239 234 230 232 231
187 184 182 180 168 167 174 175 162 170 175 199 240 259 260 248 238 232 256 297 304 302 276 254 272 244 241 234 236 237 227 226 233 235 238 234 235 238 239 236 235 237 235
176 175 179 178 166 168 166 162 149 147 160 195 224 247 265 257 238 213 241 283 292 331 333 233 250 243 255 262 265 265 254 238 234 230 225 222 225 232 235 234 233 237 239
178 174 171 167 162 170 164 152 142 140 164 203 207 217 249 260 254 215 257 291 310 347 312 273 325 164 249 282 274 264 254 246 240 228 223 230 232 232 233 236 235 237 242
173 169 168 164 160 153 147 132 112 114 184 205 214 229 241 248 247 188 252 322 2 22 3 29 103 115 199 248 258 284 283 268 236 230 229 233 240 232 228 232 237 244 248
170 171 174 170 168 155 153 158 157 196 221 234 234 235 237 244 245 168 283 351 4 350 301 294 252 144 27 120 99 357 343 337 312 261 246 246 276 261 231 221 231 244 256
183 183 181 183 175 172 171 163 153 155 198 220 282 297 269 266 267 235 220 249 271 324 332 319 282 198 154 104 123 99 352 342 337 313 303 285 305 289 257 245 243 251 256
190 189 188 185 179 173 158 129 109 81 51 32 331 301 295 279 263 244 225 221 220 200 254 290 188 174 182 129 131 150 155 254 300 309 294 296 303 292 277 261 257 260 258
194 185 181 180 178 171 158 154 158 169 193 224 228 259 295 290 280 263 248 238 232 230 238 246 181 173 170 208 216 218 202 189 213 302 307 286 283 278 273 275 268 261 261
184 182 182 176 177 170 166 169 169 184 203 213 188 292 302 312 311 280 264 259 236 232 231 238 222 180 184 201 205 207 215 235 214 223 281 301 301 274 265 261 261 265 265
180 178 177 177 187 180 174 175 181 187 191 189 212 260 287 298 302 308 304 296 253 237 227 211 217 193 196 197 207 209 204 208 214 216 249 278 287 282 273 261 262 263 261
Height
1504 1505 1506 1507 1508 1509 1510 1510 1511 1512 1513 1513 1514 1516 1517 1519 1521 1523 1525 1527 1528 1530 1532 1534 1535 1537 1538 1540 1542 1543 1544 1545 1546 1548 1549 1550 1550 1551 1552 1553 1554 1554 1555
1504 1505 1507 1508 1509 1510 1511 1512 1513 1514 1514 1515 1516 1518 1519 1521 1523 1525 1526 1528 1530 1532 1533 1535 1537 1538 1539 1541 1542 1544 1545 1547 1548 1549 1550 1551 1552 1552 1553 1554 1555 1555 1556
1504 1505 1507 1509 1511 1512 1513 1514 1515 1516 1516 1517 1518 1519 1521 1522 1524 1526 1528 1529 1531 1533 1534 1536 1538 1539 1540 1542 1543 1544 1546 1547 1548 1549 1551 1552 1552 1553 1554 1555 1556 1557 1557
1504 1505 1507 1510 1512 1513 1515 1516 1517 1518 1518 1519 1520 1521 1523 1524 1526 1528 1529 1531 1533 1534 1536 1537 1539 1540 1541 1542 1544 1545 1547 1548 1549 1550 1551 1552 1553 1554 1555 1556 1557 1557 1558
1507 1508 1510 1512 1514 1515 1516 1517 1518 1519 1520 1521 1522 1523 1525 1526 1528 1529 1530 1532 1534 1535 1537 1538 1540 1541 1542 1543 1545 1546 1547 1548 1549 1551 1552 1553 1554 1554 1555 1556 1557 1558 1558
1510 1511 1512 1514 1516 1517 1518 1519 1520 1521 1522 1523 1524 1525 1526 1528 1529 1530 1532 1533 1535 1537 1538 1539 1541 1542 1543 1544 1545 1546 1548 1549 1550 1551 1552 1553 1554 1555 1555 1556 1557 1558 1559
1513 1514 1515 1516 1518 1519 1520 1521 1522 1523 1524 1525 1526 1527 1528 1529 1531 1532 1533 1535 1536 1537 1539 1540 1541 1543 1544 1545 1546 1547 1548 1549 1550 1551 1552 1553 1554 1555 1556 1556 1557 1558 1559
1516 1517 1518 1519 1520 1521 1522 1523 1524 1525 1526 1527 1528 1529 1530 1531 1532 1533 1535 1536 1537 1538 1539 1541 1542 1543 1544 1545 1546 1547 1548 1549 1550 1551 1552 1553 1554 1555 1555 1556 1557 1558 1558
1518 1519 1520 1521 1522 1523 1524 1525 1526 1527 1528 1529 1530 1531 1532 1533 1534 1535 1536 1537 1538 1539 1540 1541 1542 1543 1544 1545 1546 1547 1548 1549 1550 1551 1552 1553 1554 1554 1555 1556 1556 1557 1558
1520 1521 1521 1522 1523 1524 1525 1526 1527 1528 1529 1531 1532 1533 1534 1535 1536 1536 1537 1538 1539 1539 1540 1541 1542 1543 1544 1545 1547 1547 1548 1549 1550 1551 1551 1552 1553 1554 1554 1555 1556 1556 1557
1521 1522 1523 1524 1525 1526 1527 1528 1529 1530 1531 1532 1533 1534 1535 1536 1537 1538 1538 1539 1540 1540 1540 1541 1542 1543 1544 1545 1546 1547 1548 1548 1549 1550 1551 1551 1552 1553 1553 1554 1555 1555 1556
1522 1524 1525 1525 1526 1527 1528 1529 1530 1531 1532 1533 1534 1535 1536 1537 1537 1538 1539 1539 1540 1540 1540 1541 1542 1543 1544 1545 1546 1547 1547 1548 1548 1549 1550 1551 1551 1552 1552 1553 1554 1554 1555
1524 1525 1526 1527 1528 1528 1529 1530 1531 1531 1533 1534 1535 1536 1536 1537 1538 1539 1539 1540 1540 1540 1541 1541 1541 1542 1543 1544 1545 1546 1546 1547 1548 1548 1549 1550 1550 1551 1551 1552 1552 1553 1554
1524 1526 1527 1528 1529 1529 1530 1531 1532 1532 1533 1534 1535 1536 1537 1537 1538 1539 1539 1540 1540 1540 1541 1541 1541 1542 1543 1543 1544 1545 1545 1546 1547 1547 1548 1549 1549 1550 1550 1551 1551 1552 1552
1525 1526 1527 1528 1529 1530 1531 1532 1532 1533 1534 1535 1536 1536 1537 1537 1538 1538 1539 1539 1540 1540 1540 1540 1540 1541 1542 1542 1543 1544 1544 1545 1545 1546 1547 1547 1548 1548 1549 1549 1550 1550 1551
1525 1527 1528 1529 1530 1531 1531 1532 1533 1533 1534 1535 1536 1536 1537 1538 1538 1538 1538 1539 1539 1539 1540 1540 1540 1540 1540 1541 1541 1542 1543 1543 1544 1545 1545 1546 1546 1547 1547 1548 1549 1549 1549
1526 1527 1528 1530 1530 1531 1532 1533 1533 1534 1535 1536 1536 1537 1537 1538 1538 1538 1538 1538 1538 1539 1539 1539 1539 1539 1539 1539 1540 1540 1541 1542 1542 1543 1544 1544 1545 1545 1546 1547 1547 1547 1548
1526 1527 1529 1530 1531 1532 1533 1533 1534 1535 1536 1537 1537 1538 1538 1538 1538 1538 1538 1538 1538 1537 1537 1537 1537 1537 1538 1538 1538 1539 1539 1540 1541 1541 1542 1543 1543 1544 1545 1545 1545 1546 1546
1526 1527 1529 1530 1531 1532 1533 1534 1535 1536 1537 1537 1538 1538 1538 1538 1538 1538 1538 1537 1537 1536 1536 1536 1536 1536 1536 1536 1537 1537 1538 1539 1539 1540 1540 1541 1542 1542 1543 1543 1543 1544 1544
1525 1527 1529 1530 1531 1532 1533 1534 1535 1536 1537 1537 1538 1538 1538 1538 1538 1538 1537 1537 1536 1535 1535 1534 1535 1534 1535 1535 1536 1536 1537 1537 1538 1538 1538 1539 1540 1540 1540 1541 1541 1541 1541
1524 1526 1528 1529 1530 1532 1533 1534 1535 1536 1537 1537 1537 1538 1538 1538 1538 1537 1537 1536 1536 1535 1534 1533 1533 1533 1533 1534 1534 1535 1535 1536 1536 1536 1537 1537 1537 1538 1538 1538 1538 1538 1538
1522 1524 1526 1528 1530 1531 1532 1533 1535 1536 1536 1537 1537 1537 1537 1537 1537 1537 1536 1536 1535 1534 1533 1532 1532 1531 1532 1533 1533 1533 1534 1535 1534 1535 1535 1535 1535 1535 1535 1535 1535 1535 1535
1520 1522 1524 1527 1528 1530 1532 1533 1534 1535 1535 1536 1536 1536 1536 1537 1536 1536 1535 1535 1534 1533 1532 1531 1531 1530 1530 1532 1532 1533 1533 1533 1533 1533 1533 1533 1533 1533 1533 1533 1532 1532 1532
1517 1521 1523 1525 1527 1529 1530 1532 1532 1533 1534 1534 1535 1535 1535 1535 1535 1535 1534 1534 1533 1532 1531 1531 1531 1530 1530 1530 1531 1532 1532 1532 1532 1531 1531 1531 1531 1531 1530 1530 1530 1530 1529
1515 1518 1521 1523 1525 1527 1529 1530 1531 1532 1533 1533 1534 1534 1534 1534 1534 1533 1533 1532 1532 1531 1531 1530 1530 1530 1529 1529 1529 1530 1530 1530 1530 1530 1528 1529 1529 1528 1528 1528 1527 1527 1527
1513 1516 1518 1521 1523 1525 1526 1528 1529 1530 1531 1531 1532 1532 1532 1532 1532 1532 1531 1531 1530 1530 1529 1529 1528 1528 1528 1528 1528 1528 1528 1528 1528 1528 1527 1526 1525 1525 1525 1525 1524 1524 1524